Terug naar catalogus

QIANFAN-50

ActiefCommunicatiePO
NORAD 62251·PAYLOAD·🇨🇳 China

Gelanceerd Dec 5, 2024 vanaf Taiyuan Satellite Launch Center

Loading…

Volgende Passages (komende 24 uur)

TLE

VersSource: Space-Track

Epoch: Sep 14, 2026, 21:32 UTC

1 62251U 24232Q   26257.89759388  .00000103  00000-0  13978-3 0  9993
2 62251  89.0164  13.5436 0017735 117.2079 243.0882 13.51029077105152

Volg QIANFAN-50 in realtime met AllMySat

Download on the App Store